FENGYUN 1C DEB, 38125

Orbit data source: Space-Track

FENGYUN 1C DEB, 38125 is space debris in SSO originally from a launch on Mon, 10 May 1999 UTC launched from the Taiyaun Space Center, China (TSC). Fengyun 1C debris stems from the Chinese weather satellite Fengyun-1C, which was intentionally destroyed by a Chinese anti-satellite missile in 2007. This event dramatically increased the amount of space debris, with thousands of trackable fragments posing hazards to satellites and human spaceflight. The Fengyun 1C debris cloud has become a focal point in discussions about space sustainability and the need for international regulations to prevent the creation of new debris.

Loading next visibility...
Identifier
38125, 1999-025EPW
Orbit
SSO
Country
Flag of CNCN / PRC
Related business
Manufacturer
Unknown
Mission
Spacecraft
Bus & Motor
Unknown
Mass
Unknown
Launch date (UTC)
1999-05-10 (27 years ago)
Launch vehicle
Unknown
Launch site
Taiyaun Space Center, China (TSC)
Object type
Payload
Rocket body
Debris
Shape & HBR
Unknown shape, 1.1 m
Radar Cross Section
Medium (>0.1 m² and <1 m²)

Expand to show TLE details & history
Last TLE update: 1 week ago

TLE from 1 week ago
0 FENGYUN 1C DEB
1 38125U 99025EPW 26257.42628682  .00000352  00000-0  52363-3 0  9996
2 38125 100.2188 326.8633 0408268  18.8735 342.7035 13.31311504855028
Epoch: 2026-09-14T10:13Z
TLE epoch observation values (Epoch: 2026-09-14T10:13:51.181Z)
Latitude
0.00001°
Longitude
179.99329°
Altitude
852.557 km
Speed
7.569 km/s
True Right ascension
21h 47m 27s
True Declination
0° 00' 00"
Sunlit
Object was in full shadow at epoch
Visualization orbit readout
Latitude
Unknown
Longitude
Unknown
Altitude
Unknown
Speed
Unknown
Apparent Right ascension
Unknown
Apparent Declination
Unknown
Sunlit
N/A
Visualization observer readout
Local Sidereal Time
03:43:31
Azimuth
Unknown
Elevation
Unknown
Doppler factor
Unknown
Orbital elements
Apogee altitude
1,446.075 km
Perigee altitude
832.26 km
Semi-major axis
7,517.304 km
Eccentricity
0.04083
Inclination
100.2188°
RAAN
326.8633°
Arg. of periapsis
18.8735°
True anomaly
341.2416°
Mean anomaly
342.7035°
Eccentric anomaly
341.97986°
Mean motion
3.33004 °/min
Orbital period
108.11 mins
BSTAR
0.00052363
Loading maneuver chart data...
Computing Atmospheric mass density...

Documentation

Showing up to 5 results
|